User: anonymous   Login
Location: Copeville
(33.0796°N, 96.4155°W)
Time: 08:56:57
(UTC+00:00)
Language:

Cosmos 2228 Rocket - Orbit

View from above orbital plane
View from above orbital plane
View from above satellite
View from above satellite

Ground track
Ground track

The orbit data is extracted from the following two-line orbital elements,

1 22287U 92094B   22147.86285906  .00000301  00000-0  38160-4 0  9991
2 22287  82.5252 197.7837 0024674 178.0104 182.1211 14.78282862564260
Epoch (UTC): 27 May 2022 20:42:31
Eccentricity: 0.0024674
inclination: 82.5252°
perigee height: 617 km
apogee height: 652 km
right ascension of ascending node: 197.7837°
argument of perigee: 178.0104°
revolutions per day: 14.78282862
mean anomaly at epoch: 182.1211°
orbit number at epoch: 56426

The dashed part of the orbit path shows where the satellite is in the earth's shadow,  

DLR